Flag for Canada

Past Weather in Vancouver, British Columbia, Canada — July 2015

Now
57 °F

Passing clouds.


Feels Like: 57 °F
Forecast: 71 / 57 °F
Wind: 3 mph from East

Location: Vancouver International Airport
Current Time: Oct 1, 2020 at 2:09:57 am
Latest Report: Oct 1, 2020 at 1:00 am
Visibility: 20 mi
Pressure30.19 "Hg
Humidity: 88%
Dew Point: 54 °F
Location of VancouverLocation

July 2015 Weather in Vancouver — Graph

°F

High & Low Weather Summary for July 2015

 TemperatureHumidityPressure
High81 °F (Jul 6, 3:00 pm)94% (Jul 5, 1:00 am)30.28 "Hg (Jul 5, 1:00 am)
Low55 °F (Jul 27, 3:00 am)37% (Jul 6, 3:00 pm)29.61 "Hg (Jul 9, 8:00 pm)
Average67 °F72%29.98 "Hg
* Reported Jul 1 12:00 am — Jul 31 11:00 pm, Vancouver. Weather by CustomWeather, © 2020

Note: Actual official high and low records may vary slightly from our data, if they occured in-between our weather recording intervals... More about our weather records

Vancouver Weather History for July 1, 2015

Scroll right to see more
 ConditionsComfort  
Time TempWeatherWind HumidityBarometerVisibility
12:00 am
Wed, Jul 1
68 °FPassing clouds.16 mph78%30.03 "Hg20 mi
1:00 am66 °FPassing clouds.17 mph78%30.04 "Hg15 mi
2:00 am66 °FPassing clouds.23 mph73%30.03 "Hg15 mi
3:00 am64 °FPassing clouds.15 mph83%30.04 "Hg15 mi
4:00 am64 °FPassing clouds.20 mph83%30.04 "Hg20 mi
5:00 am63 °FPassing clouds.16 mph83%30.05 "Hg30 mi
6:00 am63 °FClear.18 mph83%30.06 "Hg30 mi
7:00 am64 °FSunny.20 mph78%30.08 "Hg30 mi
8:00 am66 °FSunny.20 mph73%30.08 "Hg30 mi
9:00 am66 °FSunny.20 mph73%30.08 "Hg30 mi
10:00 am68 °FSunny.18 mph73%30.07 "Hg30 mi
11:00 am70 °FPassing clouds.21 mph69%30.06 "Hg30 mi
12:00 pm72 °FSunny.21 mph65%30.05 "Hg30 mi
1:00 pm72 °FSunny.21 mph65%30.04 "Hg30 mi
2:00 pm73 °FSunny.21 mph65%30.02 "Hg30 mi
3:00 pm73 °FSunny.22 mph65%30.01 "Hg30 mi
4:00 pm73 °FSunny.20 mph65%29.98 "Hg30 mi
5:00 pm75 °FSunny.18 mph65%29.97 "Hg30 mi
6:00 pm73 °FSunny.15 mph69%29.95 "Hg30 mi
7:00 pm73 °FSunny.14 mph69%29.94 "Hg30 mi
8:00 pm72 °FSunny.13 mph73%29.93 "Hg30 mi
9:00 pm70 °FSunny.13 mph73%29.93 "Hg30 mi
10:00 pm70 °FSunny.13 mph73%29.93 "Hg30 mi
11:00 pm70 °FClear.13 mph73%29.93 "Hg30 mi
Weather by CustomWeather, © 2020

See weather overview